Find Starlink 33756

NORAD ID: 63458 Int'l Des: 2025-069 Owner: SPXS Country: US Constellation: starlink operational
LEOCIRCULAR

当前视图

正在加载3D地球...

关于 Starlink 33756

正在加载描述...

即将过境

Passes for default location (London). Set your location on the main map for personalized predictions.

高度历史

Loading altitude history...

两行轨道根数

1 63458U 25069AB 26151.10584539 .00043261 00000-0 99711-3 0 9994
2 63458 53.1587 116.7574 0001045 80.3238 279.7886 15.42185639 66061
Epoch: May 31, 2026 • Age: 10 hours

当前状态

高度 439.9 km
速度 7.65 km/s
星下点 20.46°N, 158.44°W
发射日期 Apr 4, 2025
运行时间 1.1 years
类型 internet

技术详情

分类 Payload
质量 575.00 kg
干质量 530.00 kg
总质量 575.00 kg
长度 0.30 m
直径 4.10 m
跨度 29.00 m
形状 Box + pan
制造商 SPXS
平台类型 Starlink V2MO
阶段状态 In Orbit
所有者/国家 SPXS/US

Most Searched